Location: Unspecified
(0.0000°N, 0.0000°E)
Time: 01:51:25
(UTC+00:00)

deb Explorer IX - Pass Details

Date: 28 November 2019
Orbit: 546 x 1104 km, 38.8° (Epoch: 11 December)

Event Time Altitude Azimuth Distance (km) Brightness Sun altitude
Rises 04:20:16 0° 332° (NNW) 3,344 - -20.3°
Reaches altitude 10° 04:23:28 10° 347° (NNW) 2,299 - -19.6°
Exits shadow 04:24:17 13° 354° (N) 2,066 ? -19.4°
Maximum altitude 04:27:31 22° 37° (NE) 1,522 ? -18.6°
Drops below altitude 10° 04:31:09 10° 87° (E) 2,042 ? -17.8°
Sets 04:33:47 0° 103° (ESE) 2,872 ? -17.2°
